Vertical_Velocity
2 2 0 -2 -3 5 1 4 2 -11 1 0 6 2 -7 -4 -5 -2 -3 -5 -4 -0 -5 -0 4 -0 5 6 8 9 -1 2 9 1 -1 -0 -4 1 4 -0 -2 -2 -1 7
2 -1 -1 -4 3 -3 3 -0 1 1 -4 -5 -2 -1 -2 -2 -1 -1 1 1 1 3 2 7 2 2 6 4 3 -0 4 11 2 -1 9 4 3 -7 0 1 2 10 15 -2
-6 2 2 2 -9 -2 -2 4 2 -2 2 -1 -2 0 1 -1 -2 2 4 4 0 -2 2 5 3 -0 -2 -0 -0 1 3 -1 -0 -2 -3 -2 3 7 6 0 10 4 -4 -0
-0 3 -3 -12 -7 -3 -1 -1 1 -4 -1 -0 2 4 6 2 2 -0 -2 -3 -2 2 3 3 2 -1 0 0 1 1 0 4 3 -0 7 5 10 5 7 8 5 -4 4 0
-2 -1 -6 -1 -8 -7 -3 -4 -1 -1 -1 -0 1 2 0 -2 -3 -2 -2 -2 0 1 2 -0 -3 -1 -0 -1 0 2 3 3 3 7 -1 3 2 16 14 2 5 3 2 -3
0 -1 -5 -16 -0 4 7 -3 -2 0 1 1 -1 -2 -1 1 0 0 1 1 0 -0 -3 -3 -3 -1 1 1 2 0 1 1 5 7 9 22 8 8 1 3 7 -2 -2 -4
-1 -1 -4 -2 -4 0 10 -25 -0 -0 0 -3 -2 1 -0 -1 -2 -2 -2 -2 -1 -2 -2 -2 -2 -1 -1 -2 -4 -3 -4 -0 2 4 10 10 6 5 2 -2 -2 -2 -1 2
6 2 -13 -2 3 -5 -0 5 -0 2 4 5 2 -0 -2 -1 -2 -2 -4 -5 -2 -2 -1 -1 -2 -3 -4 -3 -3 1 8 7 3 2 3 3 -0 -1 -1 -1 -1 -2 -3 2
-8 -13 -6 -1 -2 3 2 1 -3 -1 1 2 -3 -3 -1 -2 -4 -4 -1 -0 -1 -1 -2 -5 -5 -5 -3 -0 -2 -3 -2 -1 -1 -1 -1 -2 -1 0 1 -3 -2 1 -3 -2
4 -5 -5 -0 -5 -5 -2 -2 -3 -3 -3 -2 -4 -4 -4 -4 -3 -1 -0 -1 -1 -0 -2 -0 1 1 3 0 -2 2 1 1 -0 -1 -0 -1 -1 -2 -1 1 -0 -1 -0 -2
-5 -5 -2 -3 -3 -3 -4 -5 -5 -2 -0 -1 -1 -0 -1 -1 0 0 2 0 1 -1 -1 -0 -0 -0 -1 1 2 -0 -1 -1 -2 -2 -1 1 -0 -2 -4 3 -5 -3 3 -3
-20 8 3 3 -1 -3 -4 -2 1 -0 -0 -0 -1 -1 0 0 0 1 0 -1 -1 -0 0 -1 0 -0 1 0 -1 -1 -2 -2 -2 -1 -1 -3 -5 -1 9 -5 2 2 -0 3
-6 -1 -3 1 2 1 1 1 1 1 2 2 3 2 1 1 0 0 1 1 0 1 1 0 -0 -0 -1 -2 -2 -2 -1 -1 0 1 2 1 3 -2 -19 17 6 9 10 2
-1 1 -1 -2 -2 3 1 1 2 2 3 3 2 2 1 1 1 1 1 1 2 1 0 0 0 -0 -0 0 0 0 -1 -3 -5 -5 -5 -4 -4 -2 -2 -8 -20 -9 17 5
-4 -2 3 4 3 0 1 2 3 2 1 1 2 1 1 0 0 0 1 1 1 1 2 1 0 -0 -0 -1 -2 -2 -2 -1 -0 0 1 -1 -1 1 0 -0 -1 -6 -7 3
1 0 -1 0 1 2 3 2 2 2 2 2 1 0 -0 0 1 1 1 2 2 2 -0 -1 -1 -1 -0 -0 -0 -0 -1 -3 -4 -3 -1 -0 -0 -2 -2 -1 -2 -2 -0 -1
2 3 2 3 6 3 1 1 2 2 1 1 1 1 2 2 1 -0 0 0 1 1 0 -0 -2 -2 -2 -3 -4 -5 -5 -1 -1 -1 -0 -2 -2 -2 -1 -2 -3 -0 -1 2
-1 0 1 -2 3 1 1 1 1 1 0 1 2 2 2 0 -1 -1 -1 0 -0 -0 -1 -2 -3 -3 -3 -2 -3 -3 -3 -3 -4 -4 -3 -1 -1 -2 -3 -2 -0 -3 -2 0
3 3 1 2 1 2 2 1 1 1 2 2 2 1 -0 -1 -2 -2 0 -0 -2 -2 -0 -1 -1 -1 -2 -2 -3 -3 -3 -2 -2 -2 -2 -2 1 -2 -1 -2 1 -0 -2 -2
4 2 0 0 2 2 -0 1 2 2 3 2 -1 -1 -1 -1 0 0 1 -2 0 -1 -1 -1 -2 -2 -2 -5 -4 -3 -3 -3 -4 -4 -3 -3 -3 -0 0 -1 -1 -1 -1 0
2 0 -3 0 2 4 3 3 2 2 1 0 -1 -0 0 -1 -0 -0 1 3 -1 -2 -2 -2 -1 -1 -3 -2 -3 -4 -4 -3 -2 -1 -2 -2 -1 1 -2 -2 -1 -2 -0 -1
3 -1 3 4 4 1 0 1 -0 -1 -1 -2 -1 -1 -1 -0 -3 -2 0 -1 -1 -0 -1 -1 -3 -3 -3 -4 -5 -4 -4 -3 -3 -1 -3 -1 -1 -1 -2 -2 -2 -1 -1 -1
-0 -0 1 3 2 4 3 -1 -1 -2 -3 -2 -2 -1 -0 -2 -2 1 1 -0 -2 -3 -3 -3 -3 -3 -3 -3 -3 -4 -3 -3 -1 -2 -2 -1 -1 -2 -2 -2 -3 -3 -2 -2
1 2 3 3 4 2 -1 -2 -2 -1 -1 -0 1 0 -1 -1 2 1 1 -0 -0 -1 -2 -3 -5 -5 -4 -3 -4 -4 -3 -2 -0 -3 0 -0 -2 -2 -2 -2 -2 -1 -1 -1
1 2 3 2 0 -1 -2 -1 -0 1 1 1 0 1 1 1 1 -1 -2 -3 -3 -2 -3 -5 -5 -4 -3 -2 -2 -1 -2 -1 -1 0 0 -0 -1 -1 -1 -1 -2 -2 -1 -2
3 2 0 -0 -2 -0 0 0 1 1 3 4 3 2 2 2 1 -0 -1 -2 -4 -3 -3 -3 -3 -3 -2 -2 -1 -0 -1 -0 -1 -1 -0 -1 -1 -1 -1 -1 -1 -1 -1 -1
2 3 3 3 4 5 5 6 5 3 2 2 2 1 0 0 -1 -3 -4 -4 -3 -2 -3 -2 -3 -1 -1 -1 0 -0 -0 -1 -1 -0 -1 -1 -2 -1 -1 -1 -1 -1 -1 -1
Height
3090 3092 3093 3094 3096 3096 3095 3094 3093 3092 3090 3092 3093 3092 3092 3092 3092 3093 3094 3094 3095 3096 3097 3097 3095 3093 3092 3092 3091 3090 3088 3088 3086 3083 3081 3078 3075 3069 3065 3061 3055 3049 3046 3041
3087 3088 3089 3089 3091 3092 3091 3090 3088 3088 3087 3088 3088 3088 3087 3088 3088 3089 3090 3090 3091 3091 3091 3090 3090 3088 3087 3087 3085 3083 3081 3080 3077 3074 3070 3066 3062 3059 3054 3048 3043 3039 3036 3038
3081 3083 3084 3084 3083 3084 3084 3084 3084 3083 3084 3084 3084 3084 3083 3083 3084 3086 3087 3087 3087 3087 3086 3084 3082 3080 3079 3078 3077 3075 3073 3071 3068 3065 3062 3058 3054 3048 3042 3037 3034 3032 3035 3031
3077 3079 3082 3077 3077 3077 3076 3075 3076 3078 3078 3078 3079 3080 3081 3081 3081 3082 3083 3083 3082 3081 3079 3077 3076 3074 3072 3071 3069 3067 3065 3062 3059 3056 3053 3048 3043 3038 3032 3028 3032 3030 3027 3022
3072 3071 3071 3072 3072 3073 3072 3071 3071 3072 3073 3074 3075 3077 3077 3078 3079 3079 3077 3076 3075 3074 3072 3070 3069 3067 3065 3063 3061 3059 3057 3054 3051 3048 3043 3038 3034 3027 3030 3027 3025 3022 3018 3014
3066 3066 3067 3065 3068 3069 3070 3069 3068 3070 3071 3072 3073 3073 3075 3074 3074 3073 3071 3070 3068 3067 3065 3063 3062 3061 3059 3056 3055 3053 3050 3047 3043 3038 3029 3027 3031 3027 3025 3021 3017 3014 3010 3007
3060 3060 3058 3061 3062 3064 3066 3067 3066 3067 3068 3069 3070 3072 3071 3070 3069 3067 3066 3065 3063 3061 3059 3057 3055 3054 3052 3050 3048 3046 3043 3041 3038 3035 3033 3028 3025 3020 3016 3013 3009 3006 3003 3000
3055 3057 3055 3054 3056 3058 3060 3060 3063 3065 3066 3067 3067 3067 3066 3064 3063 3061 3060 3059 3058 3056 3054 3051 3048 3046 3045 3043 3041 3039 3036 3033 3030 3027 3024 3020 3016 3012 3009 3005 3001 2999 2995 2992
3049 3048 3048 3048 3050 3053 3056 3058 3059 3060 3062 3062 3063 3063 3061 3060 3058 3056 3055 3054 3052 3050 3047 3044 3042 3040 3038 3035 3033 3030 3027 3024 3021 3018 3015 3012 3008 3004 3001 2998 2994 2990 2986 2982
3042 3043 3044 3045 3047 3050 3052 3055 3056 3057 3057 3058 3057 3057 3056 3055 3053 3051 3049 3047 3045 3043 3040 3039 3036 3033 3031 3028 3025 3022 3020 3017 3014 3011 3008 3004 3001 2997 2994 2990 2986 2981 2976 2972
3035 3037 3040 3041 3042 3045 3047 3049 3051 3051 3052 3052 3051 3051 3049 3048 3046 3044 3042 3039 3037 3035 3033 3031 3028 3026 3023 3021 3019 3016 3013 3010 3007 3004 3001 2998 2994 2990 2985 2981 2975 2970 2965 2960
3027 3032 3035 3037 3038 3039 3041 3043 3044 3045 3045 3045 3044 3044 3042 3040 3038 3036 3034 3031 3029 3028 3026 3022 3020 3018 3016 3014 3012 3010 3007 3004 3001 2998 2994 2990 2984 2980 2977 2970 2965 2959 2953 2947
3025 3028 3030 3032 3032 3033 3035 3036 3038 3038 3038 3038 3037 3035 3034 3033 3031 3028 3026 3024 3022 3020 3018 3016 3015 3013 3011 3008 3006 3003 3001 2998 2994 2990 2985 2980 2974 2968 2962 2960 2953 2948 2940 2934
3022 3023 3024 3025 3026 3027 3028 3030 3030 3031 3031 3030 3029 3028 3026 3025 3023 3020 3019 3018 3016 3015 3013 3012 3010 3008 3005 3003 3000 2996 2992 2988 2983 2979 2974 2968 2962 2955 2948 2941 2935 2932 2927 2920
3016 3018 3020 3021 3021 3021 3022 3023 3023 3024 3023 3022 3021 3020 3018 3017 3015 3014 3013 3012 3011 3010 3008 3006 3004 3001 2998 2995 2992 2988 2984 2980 2975 2969 2963 2956 2949 2942 2934 2927 2920 2913 2909 2906
3010 3012 3014 3014 3014 3015 3015 3016 3016 3016 3015 3014 3013 3011 3010 3010 3009 3009 3008 3007 3006 3004 3002 3000 2997 2994 2991 2988 2984 2980 2975 2969 2964 2957 2950 2943 2936 2928 2921 2914 2908 2902 2897 2893
3003 3005 3006 3006 3007 3008 3008 3008 3008 3008 3007 3006 3005 3004 3004 3004 3004 3003 3002 3001 2999 2998 2996 2993 2991 2987 2984 2980 2975 2971 2965 2959 2952 2945 2937 2929 2922 2915 2908 2901 2895 2890 2886 2882
2995 2996 2997 2998 2999 3000 3000 3000 3000 2999 2999 2999 2998 2998 2998 2998 2998 2998 2997 2995 2993 2992 2989 2986 2983 2979 2975 2971 2966 2960 2953 2946 2939 2932 2924 2917 2910 2903 2897 2891 2885 2879 2875 2872
2987 2988 2990 2991 2992 2992 2992 2992 2992 2992 2992 2992 2992 2992 2993 2993 2993 2992 2990 2989 2987 2984 2982 2979 2975 2971 2966 2960 2954 2948 2941 2934 2927 2920 2913 2906 2900 2893 2887 2882 2876 2870 2865 2862
2979 2980 2982 2983 2984 2984 2984 2984 2985 2985 2986 2987 2987 2987 2988 2988 2988 2986 2985 2983 2980 2978 2974 2971 2966 2961 2956 2950 2944 2937 2930 2924 2917 2909 2902 2896 2890 2884 2877 2872 2866 2861 2857 2853
2972 2973 2975 2977 2977 2977 2977 2979 2980 2981 2982 2982 2983 2984 2984 2983 2982 2980 2978 2975 2972 2969 2966 2962 2957 2951 2946 2940 2933 2927 2920 2913 2906 2900 2893 2887 2881 2875 2869 2863 2858 2853 2849 2845
2968 2969 2971 2971 2971 2973 2974 2976 2977 2977 2978 2978 2979 2979 2978 2977 2975 2973 2970 2967 2964 2961 2957 2952 2947 2941 2935 2928 2922 2916 2909 2903 2897 2890 2884 2878 2872 2867 2861 2856 2850 2845 2841 2836
2965 2967 2968 2968 2970 2971 2971 2971 2972 2973 2974 2974 2973 2972 2971 2970 2968 2965 2963 2960 2956 2952 2947 2941 2936 2930 2924 2918 2912 2906 2899 2893 2888 2882 2876 2870 2865 2859 2854 2849 2843 2838 2833 2829
2964 2965 2966 2967 2967 2967 2967 2968 2968 2969 2969 2968 2967 2966 2964 2962 2960 2957 2954 2950 2946 2941 2936 2931 2925 2920 2915 2909 2903 2896 2890 2885 2879 2874 2869 2863 2858 2853 2848 2843 2838 2833 2827 2822
2962 2963 2963 2964 2964 2964 2964 2964 2964 2964 2962 2961 2960 2958 2957 2954 2952 2948 2944 2940 2936 2931 2926 2922 2917 2911 2905 2900 2894 2888 2882 2877 2871 2866 2861 2856 2851 2846 2841 2836 2831 2826 2822 2817
2960 2960 2960 2960 2960 2960 2959 2959 2958 2957 2955 2954 2952 2950 2947 2945 2941 2938 2934 2930 2926 2921 2917 2912 2906 2901 2895 2890 2886 2880 2874 2868 2863 2859 2854 2849 2844 2839 2834 2829 2824 2819 2815 2811
2956 2956 2956 2956 2956 2955 2954 2953 2951 2950 2948 2945 2943 2940 2938 2935 2931 2928 2924 2920 2916 2911 2906 2901 2896 2891 2887 2882 2877 2871 2865 2860 2856 2852 2847 2842 2837 2832 2826 2821 2816 2812 2808 2803